Location: Newark
(52.3735°N, 16.9806°E)
Time: 22:13:12
(UTC+00:00)

X-37B - Pass Details

Date: 28 September 2021
Orbit: 385 x 389 km, 45.0° (Epoch: 17 October)

Event Time Altitude Azimuth Distance (km) Brightness Sun altitude
Exits shadow 02:26:08 16° 139° (SE) 1,132 3.1 -21.8°
Drops below altitude 10° 02:27:14 10° 121° (ESE) 1,414 3.8 -21.6°
Sets 02:29:40 0° 103° (ESE) 2,271 5.3 -21.3°
